GW5877 Weather Reports


time (UTC)temp
C
wind
direction
speed
KPH
gust
KPH
rain 1hr
cm
rain 24hr
cm
rain mn
cm
humidity
%
barometer
mb
20260507032739 12 19 1.6 3.2 0.00 0.00 0.00 57 1022.7
20260507032235 12 234 0.0 1.6 0.00 0.00 0.00 57 1022.7
20260507031732 12 241 0.0 0.0 0.00 0.00 0.00 59 1022.7
20260507031229 12 258 0.0 0.0 0.00 0.00 0.00 58 1022.4
20260507030725 12 303 0.0 1.6 0.00 0.00 0.00 59 1022.4
20260507030223 12 253 0.0 0.0 0.00 0.00 0.00 59 1022.5
20260507025720 12 292 1.6 1.6 0.00 0.00 0.00 58 1022.3
20260507025217 12 255 0.0 0.0 0.00 0.00 0.00 58 1022.3
20260507024715 13 245 0.0 0.0 0.00 0.00 0.00 57 1022.2
20260507024212 13 254 0.0 0.0 0.00 0.00 0.00 56 1022.2
20260507023707 13 258 0.0 0.0 0.00 0.00 0.00 55 1022.0
20260507023205 13 255 0.0 0.0 0.00 0.00 0.00 55 1022.0
20260507022702 13 247 0.0 0.0 0.00 0.00 0.00 54 1022.0
20260507022158 13 241 0.0 0.0 0.00 0.00 0.00 53 1021.8
20260507021654 14 275 0.0 0.0 0.00 0.00 0.00 52 1021.9
20260507021149 14 259 0.0 0.0 0.00 0.00 0.00 52 1021.5
20260507020648 15 12 1.6 1.6 0.00 0.00 0.00 51 1021.6
20260507020144 15 114 0.0 1.6 0.00 0.00 0.00 51 1021.6
20260507015642 15 358 1.6 3.2 0.00 0.00 0.00 50 1021.3
20260507015139 15 96 1.6 3.2 0.00 0.00 0.00 50 1021.3
20260507014636 15 246 0.0 0.0 0.00 0.00 0.00 49 1021.6
20260507014132 15 221 0.0 1.6 0.00 0.00 0.00 49 1021.3
20260507013629 15 130 1.6 1.6 0.00 0.00 0.00 48 1021.1
20260507013126 15 270 1.6 1.6 0.00 0.00 0.00 47 1021.0
20260507012623 16 100 0.0 0.0 0.00 0.00 0.00 47 1020.9
20260507012118 16 180 1.6 3.2 0.00 0.00 0.00 47 1020.9
20260507011617 16 79 1.6 3.2 0.00 0.00 0.00 46 1021.2
20260507011113 16 7 1.6 3.2 0.00 0.00 0.00 46 1020.9
20260507010608 16 285 3.2 4.8 0.00 0.00 0.00 46 1020.8
20260507010104 16 39 3.2 6.4 0.00 0.00 0.00 46 1020.8
20260507005602 16 126 6.4 11.3 0.00 0.00 0.00 46 1020.8
20260507005057 16 128 3.2 3.2 0.00 0.00 0.00 45 1020.8
20260507004555 16 271 0.0 1.6 0.00 0.00 0.00 46 1020.9
20260507004052 16 244 1.6 3.2 0.00 0.00 0.00 45 1020.9
20260507003548 17 8 1.6 1.6 0.00 0.00 0.00 46 1020.6
20260507003043 17 12 3.2 3.2 0.00 0.00 0.00 45 1020.7
20260507002540 17 251 0.0 0.0 0.00 0.00 0.00 45 1020.6
20260507002036 17 158 1.6 1.6 0.00 0.00 0.00 45 1020.7
20260507001533 17 257 0.0 1.6 0.00 0.00 0.00 45 1020.5
20260507001030 17 10 3.2 4.8 0.00 0.00 0.00 44 1020.6
20260507000526 17 245 0.0 0.0 0.00 0.00 0.00 45 1020.6
20260507000023 18 281 1.6 1.6 0.00 0.00 0.00 45 1020.5
20260506235519 18 105 1.6 3.2 0.00 0.00 0.00 44 1020.5
20260506235015 18 260 1.6 1.6 0.00 0.00 0.00 43 1020.3
20260506234513 18 283 3.2 6.4 0.00 0.00 0.00 43 1020.3
20260506234010 18 182 1.6 1.6 0.00 0.00 0.00 43 1020.2
20260506233506 17 286 1.6 3.2 0.00 0.00 0.00 44 1020.1
20260506233003 18 359 4.8 6.4 0.00 0.00 0.00 43 1020.2
20260506232459 18 1 3.2 4.8 0.00 0.00 0.00 42 1020.1
20260506231955 18 342 1.6 3.2 0.00 0.00 0.00 42 1020.0
20260506231452 18 31 3.2 3.2 0.00 0.00 0.00 42 1019.9
20260506230950 18 60 4.8 6.4 0.00 0.00 0.00 42 1020.2
20260506230446 18 273 1.6 3.2 0.00 0.00 0.00 43 1020.0
20260506225942 18 100 1.6 3.2 0.00 0.00 0.00 44 1020.0
20260506225440 17 355 3.2 3.2 0.00 0.00 0.00 44 1019.8
20260506224937 18 78 3.2 4.8 0.00 0.00 0.00 43 1019.8
20260506224434 18 160 3.2 4.8 0.00 0.00 0.00 43 1019.6
20260506223930 17 133 1.6 1.6 0.00 0.00 0.00 44 1019.7
20260506223426 18 331 3.2 6.4 0.00 0.00 0.00 43 1019.7
20260506222924 18 20 4.8 4.8 0.00 0.00 0.00 43 1019.6
20260506222420 18 29 4.8 9.7 0.00 0.00 0.00 44 1019.5
20260506221917 17 89 3.2 4.8 0.00 0.00 0.00 44 1019.4
20260506221414 18 54 4.8 4.8 0.00 0.00 0.00 43 1019.3
20260506220912 18 51 4.8 4.8 0.00 0.00 0.00 43 1019.3
20260506220407 18 75 9.7 14.5 0.00 0.00 0.00 43 1019.4
20260506215904 19 249 0.0 0.0 0.00 0.00 0.00 44 1019.4
20260506215400 18 325 1.6 3.2 0.00 0.00 0.00 43 1019.4
20260506214856 17 61 3.2 6.4 0.00 0.00 0.00 44 1019.5
20260506214353 18 124 4.8 6.4 0.00 0.00 0.00 43 1019.2
20260506213851 18 25 4.8 4.8 0.00 0.00 0.00 42 1019.7
20260506213348 18 114 4.8 6.4 0.00 0.00 0.00 43 1019.6
20260506212845 18 4 3.2 4.8 0.00 0.00 0.00 44 1019.6
20260506212341 18 38 8.0 12.9 0.00 0.00 0.00 43 1019.6
20260506211836 18 90 4.8 6.4 0.00 0.00 0.00 44 1019.7
20260506211332 18 240 0.0 1.6 0.00 0.00 0.00 44 1019.8
20260506210829 18 6 8.0 11.3 0.00 0.00 0.00 44 1020.0
20260506210326 18 316 0.0 1.6 0.00 0.00 0.00 45 1019.9
20260506205824 18 261 1.6 3.2 0.00 0.00 0.00 45 1019.9
20260506205319 18 82 1.6 3.2 0.00 0.00 0.00 45 1019.7
20260506204816 18 297 6.4 11.3 0.00 0.00 0.00 44 1019.9
20260506204314 18 25 6.4 11.3 0.00 0.00 0.00 45 1020.0
20260506203811 18 219 3.2 4.8 0.00 0.00 0.00 45 1020.1
20260506203309 17 254 3.2 6.4 0.00 0.00 0.00 48 1020.2
20260506202805 17 239 1.6 1.6 0.00 0.00 0.00 49 1020.1
20260506202305 17 246 3.2 4.8 0.00 0.00 0.00 48 1020.3
20260506201758 17 177 3.2 4.8 0.00 0.00 0.00 50 1020.4
20260506201256 17 187 4.8 11.3 0.00 0.00 0.00 48 1020.4
20260506200753 17 242 4.8 4.8 0.00 0.00 0.00 50 1020.3
20260506200249 17 300 1.6 4.8 0.00 0.00 0.00 49 1020.6
20260506195745 17 167 3.2 4.8 0.00 0.00 0.00 49 1020.5
20260506195242 16 160 4.8 6.4 0.00 0.00 0.00 49 1020.6
20260506194739 17 29 3.2 4.8 0.00 0.00 0.00 50 1020.5
20260506194235 17 60 4.8 6.4 0.00 0.00 0.00 48 1020.5
20260506193734 17 29 4.8 6.4 0.00 0.00 0.00 49 1020.7
20260506193230 16 236 0.0 0.0 0.00 0.00 0.00 51 1020.6
20260506192726 16 239 3.2 3.2 0.00 0.00 0.00 51 1020.7
20260506192223 16 110 0.0 1.6 0.00 0.00 0.00 51 1020.8
20260506191720 16 62 3.2 3.2 0.00 0.00 0.00 51 1020.7
20260506191216 16 83 4.8 6.4 0.00 0.00 0.00 50 1020.7
20260506190714 16 297 3.2 3.2 0.00 0.00 0.00 51 1020.9
20260506190210 15 340 1.6 3.2 0.00 0.00 0.00 53 1021.0
20260506185708 16 62 4.8 11.3 0.00 0.00 0.00 52 1021.0
20260506185204 16 167 1.6 1.6 0.00 0.00 0.00 51 1020.9
20260506184702 16 58 3.2 6.4 0.00 0.00 0.00 51 1020.9
20260506184159 16 236 1.6 1.6 0.00 0.00 0.00 52 1021.0
20260506183655 16 234 1.6 1.6 0.00 0.00 0.00 52 1021.0
20260506183145 15 88 3.2 4.8 0.00 0.00 0.00 52 1021.1
20260506182643 15 100 3.2 6.4 0.00 0.00 0.00 52 1021.1
20260506182140 15 52 1.6 3.2 0.00 0.00 0.00 53 1021.2
20260506181638 15 185 1.6 1.6 0.00 0.00 0.00 52 1021.2
20260506181135 15 90 3.2 4.8 0.00 0.00 0.00 52 1021.3
20260506180632 15 89 1.6 3.2 0.00 0.00 0.00 53 1021.2
20260506180128 15 83 3.2 4.8 0.00 0.00 0.00 52 1021.6
20260506175625 16 5 1.6 3.2 0.00 0.00 0.00 54 1021.6
20260506175120 15 242 0.0 1.6 0.00 0.00 0.00 53 1021.5
20260506174619 15 176 3.2 4.8 0.00 0.00 0.00 54 1021.7
20260506174115 15 85 3.2 4.8 0.00 0.00 0.00 53 1021.7
20260506173613 15 19 3.2 4.8 0.00 0.00 0.00 53 1021.7
20260506173109 16 86 6.4 9.7 0.00 0.00 0.00 52 1021.6
20260506172607 16 103 3.2 3.2 0.00 0.00 0.00 53 1021.9
20260506172103 16 133 1.6 3.2 0.00 0.00 0.00 51 1021.7
20260506171601 16 44 1.6 1.6 0.00 0.00 0.00 53 1021.6
20260506171058 16 70 6.4 6.4 0.00 0.00 0.00 52 1021.7
20260506170555 15 39 11.3 14.5 0.00 0.00 0.00 52 1021.7
20260506170053 15 69 3.2 3.2 0.00 0.00 0.00 52 1021.8
20260506165551 15 87 4.8 6.4 0.00 0.00 0.00 52 1021.7
20260506165047 15 278 3.2 3.2 0.00 0.00 0.00 52 1021.7
20260506164544 15 84 4.8 6.4 0.00 0.00 0.00 52 1021.8
20260506164041 15 47 8.0 12.9 0.00 0.00 0.00 50 1021.9
20260506163537 15 93 6.4 9.7 0.00 0.00 0.00 51 1022.1
20260506163033 15 54 3.2 4.8 0.00 0.00 0.00 51 1022.0
20260506162530 15 297 4.8 11.3 0.00 0.00 0.00 52 1021.8
20260506162027 15 73 4.8 4.8 0.00 0.00 0.00 53 1021.8
20260506161525 15 55 4.8 4.8 0.00 0.00 0.00 53 1021.9
20260506161021 14 37 4.8 4.8 0.00 0.00 0.00 54 1021.9
20260506160519 14 168 3.2 4.8 0.00 0.00 0.00 54 1021.7
20260506160016 13 84 3.2 3.2 0.00 0.00 0.00 56 1021.8
20260506155514 13 80 8.0 11.3 0.00 0.00 0.00 56 1021.7
20260506153646 13 108 1.6 3.2 0.00 0.00 0.00 58 1021.6
20260506153143 12 53 3.2 4.8 0.00 0.00 0.00 58 1021.7
20260506152639 12 86 6.4 9.7 0.00 0.00 0.00 59 1021.8
20260506152137 12 30 3.2 4.8 0.00 0.00 0.00 59 1021.8
20260506151636 12 78 4.8 6.4 0.00 0.00 0.00 60 1021.6
20260506151132 12 86 6.4 11.3 0.00 0.00 0.00 60 1021.8
20260506150629 12 98 3.2 4.8 0.00 0.00 0.00 61 1021.7
20260506150126 12 63 6.4 11.3 0.00 0.00 0.00 62 1021.8
20260506145623 12 245 1.6 3.2 0.00 0.00 0.00 63 1021.9
20260506145120 11 65 4.8 6.4 0.00 0.00 0.00 65 1021.5
20260506144617 11 52 1.6 3.2 0.00 0.00 0.00 67 1021.3
20260506144114 11 325 3.2 6.4 0.00 0.00 0.00 69 1021.3
20260506143612 10 341 4.8 4.8 0.00 0.00 0.00 70 1021.2
20260506143109 10 28 4.8 6.4 0.00 0.00 0.00 71 1021.3
20260506142607 10 217 1.6 3.2 0.00 0.00 0.00 71 1021.5
20260506142105 10 355 3.2 4.8 0.00 0.00 0.00 71 1021.3
20260506141602 10 52 1.6 1.6 0.00 0.00 0.00 72 1021.3
20260506141101 10 80 4.8 9.7 0.00 0.00 0.00 72 1021.2
20260506140558 10 82 4.8 6.4 0.00 0.00 0.00 73 1021.5
20260506140055 10 117 3.2 6.4 0.00 0.00 0.00 72 1021.6
20260506135552 10 73 3.2 4.8 0.00 0.00 0.00 73 1021.1
20260506135048 10 138 8.0 14.5 0.00 0.00 0.00 74 1021.2
20260506134545 10 49 3.2 3.2 0.00 0.00 0.00 75 1021.2
20260506134040 10 73 3.2 3.2 0.00 0.00 0.00 75 1021.6
20260506133538 10 356 4.8 6.4 0.00 0.00 0.00 76 1021.6
20260506133035 10 36 6.4 9.7 0.00 0.00 0.00 76 1021.7
20260506132532 10 265 1.6 1.6 0.00 0.00 0.00 77 1021.7
20260506132029 9 162 3.2 4.8 0.00 0.00 0.00 77 1021.6
20260506131526 10 275 3.2 3.2 0.00 0.00 0.00 78 1021.5
20260506131023 10 21 1.6 1.6 0.00 0.00 0.00 78 1021.3
20260506130519 9 230 1.6 3.2 0.00 0.00 0.00 78 1021.1
20260506130017 10 354 4.8 9.7 0.00 0.00 0.00 78 1021.2
20260506125515 9 331 0.0 1.6 0.00 0.00 0.00 79 1021.5
20260506125013 9 116 3.2 3.2 0.00 0.00 0.00 79 1021.1
20260506124510 9 50 1.6 1.6 0.00 0.00 0.00 79 1021.3
20260506124008 9 13 1.6 1.6 0.00 0.00 0.00 79 1020.9
20260506123506 9 228 1.6 1.6 0.00 0.00 0.00 79 1020.7
20260506123004 9 31 4.8 6.4 0.00 0.00 0.00 80 1020.7
20260506122500 9 228 3.2 6.4 0.00 0.00 0.00 80 1020.6
20260506121958 9 210 3.2 4.8 0.00 0.00 0.00 80 1020.8
20260506121455 9 5 3.2 3.2 0.00 0.00 0.00 80 1020.5
20260506120952 9 343 1.6 3.2 0.00 0.00 0.00 80 1020.4
20260506120449 9 179 3.2 3.2 0.00 0.00 0.00 80 1020.1
20260506115946 9 259 0.0 1.6 0.00 0.00 0.00 80 1020.3
20260506115444 9 30 1.6 3.2 0.00 0.00 0.00 80 1020.2
20260506114943 9 72 3.2 3.2 0.00 0.00 0.00 80 1020.1
20260506114440 9 254 0.0 1.6 0.00 0.00 0.00 80 1020.2
20260506113938 9 280 3.2 4.8 0.00 0.00 0.00 80 1019.9
20260506113436 9 299 1.6 3.2 0.00 0.00 0.00 80 1020.0
20260506112932 9 78 3.2 4.8 0.00 0.00 0.00 80 1020.1
20260506112430 9 91 1.6 3.2 0.00 0.00 0.00 80 1020.0
20260506111927 8 134 3.2 4.8 0.00 0.00 0.00 80 1019.7
20260506111425 8 271 1.6 3.2 0.00 0.00 0.00 80 1019.9
20260506110922 9 1 3.2 4.8 0.00 0.00 0.00 80 1019.7
20260506110420 9 319 3.2 4.8 0.00 0.00 0.00 79 1019.8
20260506105916 9 274 3.2 6.4 0.00 0.00 0.00 79 1019.6
20260506105412 9 274 0.0 1.6 0.00 0.00 0.00 79 1019.7
20260506104909 9 106 1.6 1.6 0.00 0.00 0.00 78 1019.9
20260506104408 9 249 1.6 1.6 0.00 0.00 0.00 78 1020.3
20260506103905 9 349 1.6 1.6 0.00 0.00 0.00 77 1020.6
20260506103402 9 274 3.2 3.2 0.00 0.00 0.00 77 1020.8
20260506102859 9 262 0.0 0.0 0.00 0.00 0.00 76 1020.6
20260506102357 9 256 1.6 1.6 0.00 0.00 0.00 76 1020.3
20260506101854 9 249 0.0 1.6 0.00 0.00 0.00 76 1020.1
20260506101350 9 30 1.6 1.6 0.00 0.00 0.00 76 1020.1
20260506100848 9 277 0.0 1.6 0.00 0.00 0.00 76 1020.0
20260506100346 9 52 3.2 3.2 0.00 0.00 0.00 76 1020.1
20260506095844 9 331 1.6 3.2 0.00 0.00 0.00 76 1020.3
20260506095341 9 1 3.2 4.8 0.00 0.00 0.00 76 1020.0
20260506094838 9 245 1.6 3.2 0.00 0.00 0.00 76 1019.8
20260506094337 9 270 0.0 1.6 0.00 0.00 0.00 76 1019.6
20260506093835 9 267 1.6 3.2 0.00 0.00 0.00 76 1019.5
20260506093331 9 335 4.8 6.4 0.00 0.00 0.00 76 1019.3
20260506092829 9 307 0.0 1.6 0.00 0.00 0.00 76 1019.2
20260506092327 9 210 1.6 1.6 0.00 0.00 0.00 75 1018.9
20260506091824 9 15 3.2 4.8 0.00 0.00 0.00 75 1019.0
20260506091321 9 214 4.8 6.4 0.00 0.00 0.00 74 1019.0
20260506090819 9 285 1.6 1.6 0.00 0.00 0.00 74 1019.1
20260506090316 9 341 0.0 1.6 0.00 0.00 0.00 74 1018.8
20260506085812 9 16 1.6 3.2 0.00 0.00 0.00 73 1018.8
20260506085309 9 253 0.0 1.6 0.00 0.00 0.00 73 1018.9
20260506084805 9 235 1.6 3.2 0.00 0.00 0.00 73 1018.8
20260506084302 9 359 6.4 11.3 0.00 0.00 0.00 73 1018.9
20260506083759 9 268 3.2 4.8 0.00 0.00 0.00 73 1018.9
20260506083256 9 320 1.6 3.2 0.00 0.00 0.00 72 1018.7
20260506082754 9 204 3.2 3.2 0.00 0.00 0.00 72 1018.4
20260506082249 9 293 1.6 1.6 0.00 0.00 0.00 72 1017.9
20260506081747 9 43 6.4 11.3 0.00 0.00 0.00 72 1017.9
20260506081244 9 316 0.0 3.2 0.00 0.00 0.00 72 1017.8
20260506080742 10 273 1.6 3.2 0.00 0.00 0.00 72 1018.0
20260506080238 10 270 1.6 1.6 0.00 0.00 0.00 72 1018.0
20260506073222 10 244 1.6 1.6 0.00 0.00 0.00 70 1017.3
20260506072719 10 49 6.4 9.7 0.00 0.00 0.00 70 1017.3
20260506072217 10 296 0.0 0.0 0.00 0.00 0.00 71 1017.4
20260506071714 10 328 3.2 4.8 0.00 0.00 0.00 71 1017.3
20260506071212 10 44 1.6 3.2 0.00 0.00 0.00 71 1017.3
20260506070709 10 247 1.6 1.6 0.00 0.00 0.00 71 1017.1
20260506070206 10 178 0.0 1.6 0.00 0.00 0.00 71 1017.3
20260506062143 10 333 1.6 3.2 0.00 0.00 0.00 70 1017.7
20260506061638 10 260 1.6 1.6 0.00 0.00 0.00 69 1017.5
20260506061136 10 38 4.8 4.8 0.00 0.00 0.00 69 1017.5
20260506060635 10 341 3.2 6.4 0.00 0.00 0.00 69 1017.1
20260506060131 10 189 1.6 1.6 0.00 0.00 0.00 69 1017.4
20260506051103 10 237 1.6 1.6 0.00 0.00 0.00 68 1017.3
20260506050601 10 257 1.6 1.6 0.00 0.00 0.00 68 1017.2
20260506045052 10 35 4.8 4.8 0.00 0.00 0.00 68 1017.1
20260506044550 10 200 1.6 1.6 0.00 0.00 0.00 68 1017.2
20260506044046 10 353 1.6 3.2 0.00 0.00 0.00 67 1017.4
20260506043543 10 232 1.6 1.6 0.00 0.00 0.00 68 1017.6
20260506043042 10 67 1.6 1.6 0.00 0.00 0.00 68 1017.3
20260506042540 10 251 0.0 1.6 0.00 0.00 0.00 69 1017.2
20260506042038 10 260 3.2 4.8 0.00 0.00 0.00 69 1017.4
20260506041536 10 239 1.6 3.2 0.00 0.00 0.00 69 1017.3
20260506041033 10 93 3.2 4.8 0.00 0.00 0.00 69 1017.2
20260506040531 10 71 6.4 9.7 0.00 0.00 0.00 69 1017.5
20260506040026 10 53 1.6 3.2 0.00 0.00 0.00 70 1017.2
20260506035523 10 311 1.6 3.2 0.00 0.00 0.00 71 1017.3
20260506035020 10 27 4.8 9.7 0.00 0.00 0.00 72 1017.3
20260506034518 10 138 3.2 4.8 0.00 0.00 0.00 73 1017.2
20260506034014 10 266 1.6 1.6 0.00 0.00 0.00 73 1017.1
20260506033512 10 243 3.2 4.8 0.00 0.00 0.00 74 1016.9
20260506033009 10 337 0.0 0.0 0.00 0.00 0.00 76 1016.9